EFW15AV EGKK-LEIB

Flight info

Callsign EFW15AV
Flight time N/A
Altitude 35000
Route SFD Y47 BENBO UY47 DRAKE L151 SITET UN859 SOPIL DCT BALAN DCT EVPOK DCT NARAK DCT GAI DCT LOMRA DCT ROCAN/N0438F310 DCT PUMAL N859 BCN Z174 CORDA
Aircraft A321/M-SDE3FGHIRWY/LB1

Departure

Time 2026-04-15 14:07
Airport London Gatwick Airport (EGKK)

Arrival

Time N/A
Airport Ibiza Airport (LEIB)
Time Latitude Longitude Altitude Speed Heading
2026-04-15 13:42 51.15484 -0.16967 205 ft 0 kts 348°
2026-04-15 13:53 51.15480 -0.16966 205 ft 3 kts 348°
2026-04-15 13:54 51.15463 -0.16960 209 ft 3 kts 341°
2026-04-15 13:54 51.15446 -0.16946 215 ft 3 kts 311°
2026-04-15 13:54 51.15435 -0.16919 213 ft 3 kts 280°
2026-04-15 13:54 51.15435 -0.16888 215 ft 3 kts 249°
2026-04-15 13:55 51.15445 -0.16861 211 ft 3 kts 219°
2026-04-15 13:55 51.15449 -0.16856 216 ft 0 kts 220°
2026-04-15 13:55 51.15444 -0.16870 211 ft 2 kts 246°
2026-04-15 13:56 51.15439 -0.16903 211 ft 4 kts 256°
2026-04-15 13:56 51.15434 -0.16938 212 ft 3 kts 256°
2026-04-15 13:56 51.15430 -0.16964 208 ft 3 kts 256°
2026-04-15 13:56 51.15426 -0.16991 208 ft 0 kts 259°
2026-04-15 14:01 51.15424 -0.17008 205 ft 3 kts 259°
2026-04-15 14:01 51.15418 -0.17060 205 ft 5 kts 259°
2026-04-15 14:02 51.15410 -0.17124 205 ft 6 kts 258°
2026-04-15 14:02 51.15388 -0.17187 211 ft 7 kts 243°
2026-04-15 14:02 51.15373 -0.17265 215 ft 8 kts 255°
2026-04-15 14:02 51.15360 -0.17342 210 ft 6 kts 248°
2026-04-15 14:03 51.15325 -0.17364 209 ft 6 kts 173°
2026-04-15 14:03 51.15283 -0.17343 208 ft 7 kts 164°
2026-04-15 14:03 51.15238 -0.17312 210 ft 7 kts 147°
2026-04-15 14:03 51.15195 -0.17262 209 ft 8 kts 141°
2026-04-15 14:04 51.15183 -0.17181 209 ft 8 kts 78°
2026-04-15 14:04 51.15197 -0.17087 205 ft 9 kts 77°
2026-04-15 14:04 51.15212 -0.16979 205 ft 11 kts 78°
2026-04-15 14:04 51.15225 -0.16860 210 ft 11 kts 89°
2026-04-15 14:05 51.15187 -0.16792 212 ft 8 kts 167°
2026-04-15 14:05 51.15128 -0.16809 217 ft 9 kts 211°
2026-04-15 14:05 51.15115 -0.16850 213 ft 2 kts 263°
2026-04-15 14:05 51.15113 -0.16870 212 ft 0 kts 258°
2026-04-15 14:06 51.15111 -0.16878 211 ft 6 kts 258°
2026-04-15 14:06 51.15057 -0.17275 216 ft 71 kts 258°
2026-04-15 14:06 51.14904 -0.18378 211 ft 131 kts 258°
2026-04-15 14:06 51.14669 -0.19997 447 ft 155 kts 251°
2026-04-15 14:07 51.14433 -0.21670 1254 ft 154 kts 251°
2026-04-15 14:07 51.14190 -0.23404 1541 ft 173 kts 251°
2026-04-15 14:07 51.13909 -0.25395 1738 ft 196 kts 252°
2026-04-15 14:07 51.13609 -0.27558 2285 ft 202 kts 252°
2026-04-15 14:08 51.13320 -0.29675 2906 ft 203 kts 253°
2026-04-15 14:08 51.13018 -0.31880 3563 ft 206 kts 253°
2026-04-15 14:08 51.12761 -0.33752 4124 ft 209 kts 253°
2026-04-15 14:08 51.12448 -0.36028 4840 ft 212 kts 253°
2026-04-15 14:09 51.12127 -0.38341 5512 ft 215 kts 253°
2026-04-15 14:09 51.11567 -0.40510 6189 ft 213 kts 229°
2026-04-15 14:09 51.10361 -0.41858 6831 ft 218 kts 199°
2026-04-15 14:09 51.08818 -0.41999 7461 ft 230 kts 181°
2026-04-15 14:10 51.07185 -0.41797 7915 ft 241 kts 181°
2026-04-15 14:10 51.05474 -0.41570 8381 ft 253 kts 180°
2026-04-15 14:10 51.03681 -0.41333 8860 ft 263 kts 180°
2026-04-15 14:10 51.01818 -0.41090 9328 ft 273 kts 180°
2026-04-15 14:11 50.99904 -0.40547 9815 ft 287 kts 172°
2026-04-15 14:11 50.97929 -0.39758 10197 ft 298 kts 171°
2026-04-15 14:11 50.95888 -0.38900 10568 ft 309 kts 170°
2026-04-15 14:11 50.93780 -0.37994 10939 ft 319 kts 170°
2026-04-15 14:12 50.91604 -0.37053 11277 ft 330 kts 170°
2026-04-15 14:12 50.89360 -0.36092 11637 ft 338 kts 170°
2026-04-15 14:12 50.87070 -0.35117 12143 ft 342 kts 170°
2026-04-15 14:12 50.84763 -0.34140 12730 ft 344 kts 170°
2026-04-15 14:13 50.82441 -0.33157 13314 ft 347 kts 171°
2026-04-15 14:13 50.80100 -0.32169 13888 ft 350 kts 171°
2026-04-15 14:13 50.77739 -0.31174 14398 ft 352 kts 171°
2026-04-15 14:13 50.75369 -0.30179 14903 ft 354 kts 171°
2026-04-15 14:14 50.72976 -0.29174 15398 ft 357 kts 170°
2026-04-15 14:14 50.70568 -0.28162 15901 ft 359 kts 170°
2026-04-15 14:14 50.68144 -0.27147 16398 ft 361 kts 170°
2026-04-15 14:14 50.65708 -0.26130 16876 ft 363 kts 170°
2026-04-15 14:15 50.63257 -0.25106 17343 ft 365 kts 170°
2026-04-15 14:15 50.60795 -0.24080 17795 ft 367 kts 170°
2026-04-15 14:15 50.58313 -0.23047 18261 ft 370 kts 170°
2026-04-15 14:15 50.55819 -0.22014 18675 ft 371 kts 170°
2026-04-15 14:16 50.53315 -0.20975 19081 ft 373 kts 170°
2026-04-15 14:16 50.50805 -0.19935 19489 ft 374 kts 170°
2026-04-15 14:16 50.48280 -0.18885 19904 ft 375 kts 170°
2026-04-15 14:16 50.45758 -0.17842 20319 ft 376 kts 170°
2026-04-15 14:17 50.44078 -0.17149 20598 ft 377 kts 171°
2026-04-15 14:17 50.41538 -0.16104 21026 ft 378 kts 171°
2026-04-15 14:17 50.38987 -0.15052 21436 ft 380 kts 171°
2026-04-15 14:17 50.36429 -0.13995 21832 ft 381 kts 171°
2026-04-15 14:18 50.33828 -0.12925 22234 ft 382 kts 171°
2026-04-15 14:18 50.31250 -0.11860 22620 ft 384 kts 171°
2026-04-15 14:18 50.28666 -0.10791 23000 ft 385 kts 171°
2026-04-15 14:18 50.26069 -0.09723 23366 ft 387 kts 171°
2026-04-15 14:19 50.23457 -0.08655 23717 ft 388 kts 171°
2026-04-15 14:19 50.20851 -0.07503 24007 ft 393 kts 166°
2026-04-15 14:19 50.18303 -0.05810 24278 ft 399 kts 162°
2026-04-15 14:19 50.15765 -0.04044 24564 ft 401 kts 162°
2026-04-15 14:20 50.13212 -0.02267 24836 ft 403 kts 162°
2026-04-15 14:20 50.10642 -0.00496 25109 ft 403 kts 164°
2026-04-15 14:20 50.07983 0.00794 25368 ft 400 kts 171°
2026-04-15 14:20 50.05313 0.01853 25626 ft 402 kts 171°
2026-04-15 14:21 50.02597 0.02919 25901 ft 404 kts 171°
2026-04-15 14:21 49.99831 0.04003 26173 ft 406 kts 171°
2026-04-15 14:21 49.97088 0.05077 26436 ft 408 kts 171°
2026-04-15 14:21 49.94330 0.06159 26693 ft 410 kts 171°
2026-04-15 14:22 49.91588 0.07236 26933 ft 412 kts 171°
2026-04-15 14:22 49.88807 0.08324 27165 ft 414 kts 171°
2026-04-15 14:22 49.86010 0.09418 27399 ft 415 kts 171°
2026-04-15 14:22 49.83204 0.10520 27702 ft 415 kts 171°
2026-04-15 14:23 49.80401 0.11619 28003 ft 415 kts 172°
2026-04-15 14:23 49.77598 0.12712 28333 ft 415 kts 172°
2026-04-15 14:23 49.74839 0.13788 28647 ft 414 kts 172°
2026-04-15 14:23 49.72045 0.14880 28974 ft 414 kts 172°
2026-04-15 14:24 49.69257 0.15968 29297 ft 413 kts 172°
2026-04-15 14:24 49.66477 0.17053 29629 ft 412 kts 172°
2026-04-15 14:24 49.63700 0.18160 29887 ft 414 kts 171°
2026-04-15 14:24 49.60905 0.19296 30105 ft 416 kts 172°
2026-04-15 14:25 49.58103 0.20436 30281 ft 417 kts 171°
2026-04-15 14:25 49.55293 0.21579 30459 ft 419 kts 171°
2026-04-15 14:25 49.52472 0.22721 30669 ft 419 kts 172°
2026-04-15 14:25 49.49655 0.23857 30906 ft 418 kts 172°
2026-04-15 14:26 49.46839 0.24990 31142 ft 418 kts 172°
2026-04-15 14:26 49.44030 0.26114 31362 ft 418 kts 172°
2026-04-15 14:26 49.41211 0.27238 31576 ft 418 kts 172°
2026-04-15 14:26 49.38390 0.28361 31809 ft 418 kts 172°
2026-04-15 14:27 49.35577 0.29482 32043 ft 418 kts 172°
2026-04-15 14:27 49.32763 0.30602 32265 ft 418 kts 172°
2026-04-15 14:27 49.29952 0.31723 32473 ft 418 kts 172°
2026-04-15 14:27 49.27140 0.32874 32695 ft 418 kts 171°
2026-04-15 14:28 49.24333 0.34054 32914 ft 418 kts 171°
2026-04-15 14:28 49.21530 0.35250 33115 ft 418 kts 171°
2026-04-15 14:28 49.18727 0.36453 33341 ft 418 kts 171°
2026-04-15 14:28 49.15923 0.37656 33553 ft 418 kts 171°
2026-04-15 14:29 49.13122 0.38848 33767 ft 418 kts 171°
2026-04-15 14:29 49.10324 0.40024 33981 ft 417 kts 171°
2026-04-15 14:29 49.07539 0.41186 34193 ft 417 kts 171°
2026-04-15 14:29 49.04717 0.42359 34364 ft 417 kts 171°
2026-04-15 14:30 49.01919 0.43522 34515 ft 418 kts 171°
2026-04-15 14:30 48.99114 0.44689 34679 ft 418 kts 171°
2026-04-15 14:30 48.96309 0.45854 34830 ft 418 kts 171°
2026-04-15 14:30 48.93497 0.47024 34977 ft 419 kts 171°
2026-04-15 14:31 48.90686 0.48193 35114 ft 419 kts 171°
2026-04-15 14:31 48.85074 0.50535 35147 ft 419 kts 171°
2026-04-15 14:32 48.79444 0.52861 35156 ft 419 kts 171°
2026-04-15 14:32 48.73807 0.55126 35156 ft 419 kts 172°
2026-04-15 14:33 48.68151 0.57327 35155 ft 420 kts 172°
2026-04-15 14:33 48.62490 0.59526 35161 ft 420 kts 172°
2026-04-15 14:34 48.56817 0.61736 35164 ft 421 kts 172°
2026-04-15 14:34 48.51140 0.63949 35170 ft 422 kts 172°
2026-04-15 14:35 48.45459 0.66242 35168 ft 423 kts 171°
2026-04-15 14:35 48.39772 0.68585 35174 ft 424 kts 171°
2026-04-15 14:36 48.34074 0.70907 35174 ft 424 kts 171°
2026-04-15 14:36 48.28377 0.73216 35173 ft 425 kts 171°
2026-04-15 14:37 48.22695 0.75504 35173 ft 425 kts 171°
2026-04-15 14:37 48.16970 0.77752 35174 ft 425 kts 172°
2026-04-15 14:38 48.11238 0.79985 35171 ft 426 kts 172°
2026-04-15 14:38 48.05496 0.82232 35186 ft 427 kts 172°
2026-04-15 14:39 47.99752 0.84485 35182 ft 427 kts 172°
2026-04-15 14:39 47.93993 0.86735 35183 ft 428 kts 171°
2026-04-15 14:40 47.88234 0.88980 35181 ft 428 kts 172°
2026-04-15 14:40 47.82472 0.91216 35193 ft 428 kts 172°
2026-04-15 14:41 47.76701 0.93448 35196 ft 429 kts 172°
2026-04-15 14:41 47.70921 0.95669 35195 ft 429 kts 171°
2026-04-15 14:42 47.65136 0.97901 35194 ft 430 kts 171°
2026-04-15 14:42 47.59348 1.00138 35199 ft 430 kts 171°
2026-04-15 14:43 47.53562 1.02370 35201 ft 430 kts 171°
2026-04-15 14:43 47.47756 1.04599 35203 ft 431 kts 171°
2026-04-15 14:44 47.41928 1.06346 35205 ft 423 kts 182°
2026-04-15 14:44 47.36085 1.06272 35205 ft 420 kts 186°
2026-04-15 14:45 47.30240 1.06129 35203 ft 420 kts 186°
2026-04-15 14:45 47.24386 1.06004 35207 ft 421 kts 186°
2026-04-15 14:46 47.18525 1.05874 35209 ft 421 kts 186°
2026-04-15 14:46 47.12660 1.05738 35213 ft 422 kts 186°
2026-04-15 14:47 47.06786 1.05606 35214 ft 422 kts 186°
2026-04-15 14:47 47.00916 1.05464 35216 ft 422 kts 186°
2026-04-15 14:48 46.95044 1.05228 35219 ft 422 kts 187°
2026-04-15 14:48 46.89167 1.04945 35221 ft 423 kts 187°
2026-04-15 14:49 46.83378 1.04687 35222 ft 423 kts 187°
2026-04-15 14:49 46.77493 1.04438 35230 ft 423 kts 187°
2026-04-15 14:50 46.71603 1.04181 35230 ft 423 kts 187°
2026-04-15 14:50 46.65711 1.03934 35226 ft 424 kts 187°
2026-04-15 14:51 46.59808 1.03686 35231 ft 424 kts 187°
2026-04-15 14:51 46.53909 1.03441 35227 ft 425 kts 186°
2026-04-15 14:52 46.47984 1.04552 35225 ft 435 kts 172°
2026-04-15 14:52 46.42088 1.06533 35227 ft 435 kts 173°
2026-04-15 14:53 46.36180 1.08503 35228 ft 436 kts 173°
2026-04-15 14:53 46.30264 1.10472 35230 ft 436 kts 173°
2026-04-15 14:54 46.24349 1.12436 35228 ft 436 kts 173°
2026-04-15 14:54 46.18427 1.14407 35233 ft 437 kts 173°
2026-04-15 14:55 46.12540 1.16356 35238 ft 437 kts 173°
2026-04-15 14:55 46.06611 1.18301 35253 ft 437 kts 173°
2026-04-15 14:56 46.00679 1.20258 35251 ft 437 kts 173°
2026-04-15 14:56 45.94737 1.22212 35251 ft 438 kts 173°
2026-04-15 14:57 45.88803 1.24167 35239 ft 435 kts 173°